sat.trackr.live / text

‹ back to catalog

STARLINK-2633

NORAD 48435 · 2021-040H

PAYLOAD ACTIVE UNKNOWN

§ Identity

Operator
Country
US
Launch date
2021-05-09
Launch site
AFETR
Launch vehicle
Mass (kg)
RCS (m²)

Purposes: comms

External: N2YO · Heavens-Above · Gunter

§ Orbital elements

Epoch: 2026-09-20T04:12:44.167680Z

Period
94.01 min
Inclination
53.1593°
Eccentricity
0.0001218
Mean motion
15.31701792 rev/d
Perigee alt
469.9 km
Apogee alt
471.6 km
Semi-major
6,848.9 km
B*
1.2736e-5
RAAN
340.1649°
Arg perigee
90.6917°
Mean anomaly
269.4224°
Rev number
29,665

§ Raw data

STARLINK-26331 48435U 21040H   26263.17551120  .00000030  00000+0  12736-4 0  99972 48435  53.1593 340.1649 0001218  90.6917 269.4224 15.31701792296656

JSON: /api/v1/satellites/48435 · /tle

For live sub-satellite position, see the globe view (requires WebGL).

§ Visibility from observer

Set your observer location to see the next 7 days of passes ≥ 10°. The values pass through the URL so the page stays shareable.

No JS? Fill the form by hand. The geolocation button needs JavaScript.